"SCET";"RADIUS";"LONGITUDE";"LOCAL_TIME";"LATITUDE";"MAGNETIC_LOCAL_TIME";"MAGNETIC_LATITUDE";"JSE_X";"JSE_Y";"JSE_Z";"FREQ_CE";"METHOD";"MEASURED_VALUE";"QUALITY_INDEX";"MEASURED_ITEM";"SOLAR_WIND";"FREQ_PE";"FREQ_L0";"FREQ_R0";"FREQ_UHR";"ELECTRON_DENSITY"
"[UTC]";"[Rj where 1Rj=71492km]";"[degrees]";"[hours]";"[degrees]";"[degrees]";"[hours]";"[Rj where 1Rj=71492km]";"[Rj where 1Rj=71492km]";"[Rj where 1Rj=71492km]";"[Hz]";"[line, spec, or auto]";"[Hz]";"[0 = best, 3 = worst]";"[p, R, L or u]";"[1 if Yes, 0 if No]";"[Hz]";"[Hz]";"[Hz]";"[Hz]";"[cm-3]"
1998-12-07T00:00:05.091;9.7549e+01;2.0586e+02;2.3262e+01;1.1542e-01;2.2200e+01;9.5780e+00;-8.7013e+01;4.4061e+01;1.7041e+00;1.1322e+02;"line";1.2385e+03;0;"p";0;1.2385e+03;1.1832e+03;1.2964e+03;1.2437e+03;1.9022e-02
1998-12-07T00:00:23.757;9.7550e+01;2.0604e+02;2.3262e+01;1.1542e-01;2.2200e+01;9.5753e+00;-8.7013e+01;4.4061e+01;1.7041e+00;1.1494e+02;"line";1.0779e+03;0;"p";0;1.0779e+03;1.0220e+03;1.1369e+03;1.0841e+03;1.4409e-02
1998-12-07T00:00:42.424;9.7550e+01;2.0623e+02;2.3263e+01;1.1542e-01;2.2200e+01;9.5723e+00;-8.7014e+01;4.4061e+01;1.7042e+00;1.1449e+02;"line";1.2385e+03;0;"p";0;1.2385e+03;1.1826e+03;1.2971e+03;1.2438e+03;1.9022e-02
1998-12-07T00:01:01.090;9.7551e+01;2.0643e+02;2.3263e+01;1.1542e-01;2.2200e+01;9.5692e+00;-8.7015e+01;4.4060e+01;1.7042e+00;1.1512e+02;"line";1.2385e+03;0;"p";0;1.2385e+03;1.1823e+03;1.2974e+03;1.2439e+03;1.9022e-02
1998-12-07T00:01:19.757;9.7552e+01;2.0661e+02;2.3263e+01;1.1542e-01;2.2200e+01;9.5662e+00;-8.7016e+01;4.4060e+01;1.7042e+00;1.1319e+02;"line";1.2385e+03;0;"p";0;1.2385e+03;1.1832e+03;1.2964e+03;1.2437e+03;1.9022e-02
1998-12-07T00:01:38.424;9.7552e+01;2.0680e+02;2.3263e+01;1.1541e-01;2.2200e+01;9.5629e+00;-8.7017e+01;4.4060e+01;1.7043e+00;1.1352e+02;"line";1.2102e+03;0;"p";0;1.2102e+03;1.1548e+03;1.2683e+03;1.2155e+03;1.8162e-02
1998-12-07T00:01:57.090;9.7553e+01;2.0699e+02;2.3263e+01;1.1541e-01;2.2200e+01;9.5595e+00;-8.7018e+01;4.4060e+01;1.7043e+00;1.1524e+02;"line";1.1825e+03;0;"p";0;1.1825e+03;1.1263e+03;1.2415e+03;1.1881e+03;1.7340e-02
1998-12-07T00:02:15.757;9.7554e+01;2.0717e+02;2.3263e+01;1.1541e-01;2.2199e+01;9.5562e+00;-8.7018e+01;4.4060e+01;1.7043e+00;1.1619e+02;"line";1.1825e+03;0;"p";0;1.1825e+03;1.1258e+03;1.2420e+03;1.1882e+03;1.7340e-02
1998-12-07T00:02:34.424;9.7555e+01;2.0736e+02;2.3264e+01;1.1541e-01;2.2199e+01;9.5526e+00;-8.7019e+01;4.4060e+01;1.7044e+00;1.1291e+02;"line";1.1825e+03;0;"p";0;1.1825e+03;1.1274e+03;1.2403e+03;1.1879e+03;1.7340e-02
1998-12-07T00:02:53.090;9.7555e+01;2.0755e+02;2.3264e+01;1.1540e-01;2.2199e+01;9.5489e+00;-8.7020e+01;4.4060e+01;1.7044e+00;1.1517e+02;"line";1.1825e+03;0;"p";0;1.1825e+03;1.1263e+03;1.2415e+03;1.1881e+03;1.7340e-02
1998-12-07T00:03:11.757;9.7556e+01;2.0773e+02;2.3264e+01;1.1540e-01;2.2199e+01;9.5453e+00;-8.7021e+01;4.4060e+01;1.7044e+00;1.1742e+02;"line";1.1825e+03;0;"p";0;1.1825e+03;1.1253e+03;1.2427e+03;1.1883e+03;1.7340e-02
1998-12-07T00:03:30.424;9.7557e+01;2.0793e+02;2.3264e+01;1.1540e-01;2.2199e+01;9.5413e+00;-8.7022e+01;4.4060e+01;1.7045e+00;1.1770e+02;"line";1.1825e+03;0;"p";0;1.1825e+03;1.1251e+03;1.2428e+03;1.1883e+03;1.7340e-02
1998-12-07T00:03:49.090;9.7557e+01;2.0812e+02;2.3264e+01;1.1540e-01;2.2199e+01;9.5373e+00;-8.7023e+01;4.4060e+01;1.7045e+00;1.1887e+02;"line";1.1825e+03;0;"p";0;1.1825e+03;1.1246e+03;1.2434e+03;1.1885e+03;1.7340e-02
1998-12-07T00:04:07.757;9.7558e+01;2.0830e+02;2.3264e+01;1.1539e-01;2.2199e+01;9.5334e+00;-8.7023e+01;4.4060e+01;1.7045e+00;1.2151e+02;"line";1.1825e+03;0;"p";0;1.1825e+03;1.1233e+03;1.2448e+03;1.1887e+03;1.7340e-02
1998-12-07T00:04:26.424;9.7559e+01;2.0849e+02;2.3265e+01;1.1539e-01;2.2199e+01;9.5292e+00;-8.7024e+01;4.4060e+01;1.7046e+00;1.2214e+02;"line";1.1825e+03;0;"p";0;1.1825e+03;1.1230e+03;1.2451e+03;1.1888e+03;1.7340e-02
1998-12-07T00:04:45.090;9.7560e+01;2.0868e+02;2.3265e+01;1.1539e-01;2.2199e+01;9.5248e+00;-8.7025e+01;4.4060e+01;1.7046e+00;1.2069e+02;"line";1.1825e+03;0;"p";0;1.1825e+03;1.1237e+03;1.2444e+03;1.1886e+03;1.7340e-02
1998-12-07T00:05:03.757;9.7560e+01;2.0886e+02;2.3265e+01;1.1539e-01;2.2199e+01;9.5206e+00;-8.7026e+01;4.4060e+01;1.7046e+00;1.1794e+02;"line";1.1825e+03;0;"p";0;1.1825e+03;1.1250e+03;1.2429e+03;1.1884e+03;1.7340e-02
1998-12-07T00:05:22.424;9.7561e+01;2.0905e+02;2.3265e+01;1.1538e-01;2.2199e+01;9.5161e+00;-8.7027e+01;4.4060e+01;1.7047e+00;1.1713e+02;"line";1.1825e+03;0;"p";0;1.1825e+03;1.1254e+03;1.2425e+03;1.1883e+03;1.7340e-02
1998-12-07T00:05:41.090;9.7562e+01;2.0924e+02;2.3265e+01;1.1538e-01;2.2198e+01;9.5114e+00;-8.7028e+01;4.4060e+01;1.7047e+00;1.1747e+02;"line";1.1825e+03;0;"p";0;1.1825e+03;1.1252e+03;1.2427e+03;1.1883e+03;1.7340e-02
1998-12-07T00:05:59.757;9.7562e+01;2.0942e+02;2.3265e+01;1.1538e-01;2.2198e+01;9.5069e+00;-8.7028e+01;4.4059e+01;1.7047e+00;1.1566e+02;"line";1.1825e+03;0;"p";0;1.1825e+03;1.1261e+03;1.2417e+03;1.1881e+03;1.7340e-02
1998-12-07T00:06:18.424;9.7563e+01;2.0962e+02;2.3266e+01;1.1538e-01;2.2198e+01;9.5021e+00;-8.7029e+01;4.4059e+01;1.7048e+00;1.1190e+02;"line";1.1825e+03;0;"p";0;1.1825e+03;1.1279e+03;1.2398e+03;1.1878e+03;1.7340e-02
1998-12-07T00:06:37.090;9.7564e+01;2.0981e+02;2.3266e+01;1.1537e-01;2.2198e+01;9.4971e+00;-8.7030e+01;4.4059e+01;1.7048e+00;1.1257e+02;"line";1.1825e+03;0;"p";0;1.1825e+03;1.1276e+03;1.2401e+03;1.1879e+03;1.7340e-02
1998-12-07T00:06:55.757;9.7565e+01;2.0999e+02;2.3266e+01;1.1537e-01;2.2198e+01;9.4923e+00;-8.7031e+01;4.4059e+01;1.7048e+00;1.1550e+02;"line";1.1825e+03;0;"p";0;1.1825e+03;1.1262e+03;1.2417e+03;1.1881e+03;1.7340e-02
1998-12-07T00:07:14.424;9.7565e+01;2.1018e+02;2.3266e+01;1.1537e-01;2.2198e+01;9.4872e+00;-8.7032e+01;4.4059e+01;1.7049e+00;1.1565e+02;"line";1.1825e+03;0;"p";0;1.1825e+03;1.1261e+03;1.2417e+03;1.1881e+03;1.7340e-02
1998-12-07T00:07:33.090;9.7566e+01;2.1037e+02;2.3266e+01;1.1537e-01;2.2198e+01;9.4819e+00;-8.7032e+01;4.4059e+01;1.7049e+00;1.1493e+02;"line";1.1825e+03;0;"p";0;1.1825e+03;1.1264e+03;1.2414e+03;1.1881e+03;1.7340e-02
1998-12-07T00:07:51.757;9.7567e+01;2.1055e+02;2.3266e+01;1.1536e-01;2.2198e+01;9.4768e+00;-8.7033e+01;4.4059e+01;1.7049e+00;1.1653e+02;"line";1.1825e+03;0;"p";0;1.1825e+03;1.1257e+03;1.2422e+03;1.1882e+03;1.7340e-02
1998-12-07T00:08:10.424;9.7567e+01;2.1074e+02;2.3267e+01;1.1536e-01;2.2198e+01;9.4714e+00;-8.7034e+01;4.4059e+01;1.7050e+00;1.1723e+02;"line";1.2385e+03;0;"p";0;1.2385e+03;1.1813e+03;1.2985e+03;1.2441e+03;1.9022e-02
1998-12-07T00:08:29.090;9.7568e+01;2.1093e+02;2.3267e+01;1.1536e-01;2.2198e+01;9.4658e+00;-8.7035e+01;4.4059e+01;1.7050e+00;1.1928e+02;"line";1.2102e+03;0;"p";0;1.2102e+03;1.1520e+03;1.2713e+03;1.2161e+03;1.8162e-02
1998-12-07T00:08:47.757;9.7569e+01;2.1111e+02;2.3267e+01;1.1536e-01;2.2198e+01;9.4604e+00;-8.7036e+01;4.4059e+01;1.7050e+00;1.1755e+02;"line";1.2385e+03;0;"p";0;1.2385e+03;1.1811e+03;1.2987e+03;1.2441e+03;1.9022e-02
1998-12-07T00:09:06.424;9.7570e+01;2.1131e+02;2.3267e+01;1.1535e-01;2.2198e+01;9.4546e+00;-8.7037e+01;4.4059e+01;1.7051e+00;1.1256e+02;"line";1.2385e+03;0;"p";0;1.2385e+03;1.1835e+03;1.2961e+03;1.2436e+03;1.9022e-02
1998-12-07T00:09:25.090;9.7570e+01;2.1150e+02;2.3267e+01;1.1535e-01;2.2197e+01;9.4487e+00;-8.7037e+01;4.4059e+01;1.7051e+00;1.1506e+02;"line";1.1825e+03;0;"p";0;1.1825e+03;1.1264e+03;1.2414e+03;1.1881e+03;1.7340e-02
1998-12-07T00:09:43.757;9.7571e+01;2.1168e+02;2.3267e+01;1.1535e-01;2.2197e+01;9.4431e+00;-8.7038e+01;4.4059e+01;1.7051e+00;1.1716e+02;"line";1.1825e+03;0;"p";0;1.1825e+03;1.1254e+03;1.2425e+03;1.1883e+03;1.7340e-02
1998-12-07T00:10:02.424;9.7572e+01;2.1187e+02;2.3268e+01;1.1535e-01;2.2197e+01;9.4370e+00;-8.7039e+01;4.4059e+01;1.7052e+00;1.1527e+02;"line";1.1825e+03;0;"p";0;1.1825e+03;1.1263e+03;1.2415e+03;1.1881e+03;1.7340e-02
1998-12-07T00:10:21.090;9.7572e+01;2.1206e+02;2.3268e+01;1.1535e-01;2.2197e+01;9.4308e+00;-8.7040e+01;4.4059e+01;1.7052e+00;1.1248e+02;"line";1.1825e+03;0;"p";0;1.1825e+03;1.1276e+03;1.2401e+03;1.1878e+03;1.7340e-02
1998-12-07T00:10:39.757;9.7573e+01;2.1224e+02;2.3268e+01;1.1534e-01;2.2197e+01;9.4248e+00;-8.7041e+01;4.4059e+01;1.7052e+00;1.1310e+02;"line";1.1825e+03;0;"p";0;1.1825e+03;1.1273e+03;1.2404e+03;1.1879e+03;1.7340e-02
1998-12-07T00:10:58.423;9.7574e+01;2.1243e+02;2.3268e+01;1.1534e-01;2.2197e+01;9.4184e+00;-8.7042e+01;4.4059e+01;1.7052e+00;1.1168e+02;"line";1.1825e+03;0;"p";0;1.1825e+03;1.1280e+03;1.2397e+03;1.1878e+03;1.7340e-02
1998-12-07T00:11:17.090;9.7575e+01;2.1262e+02;2.3268e+01;1.1534e-01;2.2197e+01;9.4119e+00;-8.7042e+01;4.4058e+01;1.7053e+00;1.0981e+02;"line";1.1825e+03;0;"p";0;1.1825e+03;1.1289e+03;1.2387e+03;1.1876e+03;1.7340e-02
1998-12-07T00:11:35.757;9.7575e+01;2.1280e+02;2.3269e+01;1.1534e-01;2.2197e+01;9.4056e+00;-8.7043e+01;4.4058e+01;1.7053e+00;1.1047e+02;"line";1.1825e+03;0;"p";0;1.1825e+03;1.1286e+03;1.2390e+03;1.1877e+03;1.7340e-02
1998-12-07T00:11:54.423;9.7576e+01;2.1300e+02;2.3269e+01;1.1533e-01;2.2197e+01;9.3989e+00;-8.7044e+01;4.4058e+01;1.7053e+00;1.1248e+02;"line";1.0779e+03;0;"p";0;1.0779e+03;1.0232e+03;1.1357e+03;1.0838e+03;1.4409e-02
1998-12-07T00:12:13.090;9.7577e+01;2.1319e+02;2.3269e+01;1.1533e-01;2.2197e+01;9.3921e+00;-8.7045e+01;4.4058e+01;1.7054e+00;1.0641e+02;"line";1.2102e+03;0;"p";0;1.2102e+03;1.1582e+03;1.2646e+03;1.2149e+03;1.8162e-02
1998-12-07T00:12:31.757;9.7577e+01;2.1337e+02;2.3269e+01;1.1533e-01;2.2197e+01;9.3856e+00;-8.7046e+01;4.4058e+01;1.7054e+00;1.0366e+02;"line";1.0779e+03;0;"p";0;1.0779e+03;1.0274e+03;1.1310e+03;1.0829e+03;1.4409e-02
1998-12-07T00:12:50.423;9.7578e+01;2.1356e+02;2.3269e+01;1.1533e-01;2.2197e+01;9.3786e+00;-8.7047e+01;4.4058e+01;1.7054e+00;1.0178e+02;"line";1.1555e+03;0;"p";0;1.1555e+03;1.1057e+03;1.2075e+03;1.1599e+03;1.6556e-02
1998-12-07T00:13:09.090;9.7579e+01;2.1375e+02;2.3269e+01;1.1532e-01;2.2197e+01;9.3714e+00;-8.7047e+01;4.4058e+01;1.7055e+00;1.0144e+02;"line";1.0779e+03;0;"p";0;1.0779e+03;1.0284e+03;1.1299e+03;1.0827e+03;1.4409e-02
1998-12-07T00:13:27.757;9.7580e+01;2.1393e+02;2.3270e+01;1.1532e-01;2.2197e+01;9.3646e+00;-8.7048e+01;4.4058e+01;1.7055e+00;1.0360e+02;"line";1.0056e+03;0;"p";0;1.0056e+03;9.5517e+02;1.0588e+03;1.0110e+03;1.2541e-02
1998-12-07T00:13:46.423;9.7580e+01;2.1412e+02;2.3270e+01;1.1532e-01;2.2196e+01;9.3573e+00;-8.7049e+01;4.4058e+01;1.7055e+00;1.0275e+02;"line";1.0779e+03;0;"p";0;1.0779e+03;1.0278e+03;1.1305e+03;1.0828e+03;1.4409e-02
1998-12-07T00:14:05.090;9.7581e+01;2.1431e+02;2.3270e+01;1.1532e-01;2.2196e+01;9.3499e+00;-8.7050e+01;4.4058e+01;1.7056e+00;1.0327e+02;"line";1.0056e+03;0;"p";0;1.0056e+03;9.5533e+02;1.0586e+03;1.0109e+03;1.2541e-02
1998-12-07T00:14:23.757;9.7582e+01;2.1450e+02;2.3270e+01;1.1531e-01;2.2196e+01;9.3427e+00;-8.7051e+01;4.4058e+01;1.7056e+00;1.0576e+02;"line";1.0779e+03;0;"p";0;1.0779e+03;1.0264e+03;1.1321e+03;1.0831e+03;1.4409e-02
1998-12-07T00:14:42.423;9.7582e+01;2.1469e+02;2.3270e+01;1.1531e-01;2.2196e+01;9.3351e+00;-8.7052e+01;4.4058e+01;1.7056e+00;1.0914e+02;"line";1.0056e+03;0;"p";0;1.0056e+03;9.5255e+02;1.0617e+03;1.0115e+03;1.2541e-02
1998-12-07T00:15:01.090;9.7583e+01;2.1488e+02;2.3270e+01;1.1531e-01;2.2196e+01;9.3274e+00;-8.7052e+01;4.4058e+01;1.7057e+00;1.0864e+02;"line";1.0533e+03;0;"p";0;1.0533e+03;1.0004e+03;1.1090e+03;1.0589e+03;1.3757e-02
1998-12-07T00:15:19.757;9.7584e+01;2.1506e+02;2.3271e+01;1.1531e-01;2.2196e+01;9.3200e+00;-8.7053e+01;4.4058e+01;1.7057e+00;1.0930e+02;"line";1.0292e+03;0;"p";0;1.0292e+03;9.7598e+02;1.0853e+03;1.0350e+03;1.3135e-02
1998-12-07T00:15:38.423;9.7585e+01;2.1525e+02;2.3271e+01;1.1530e-01;2.2196e+01;9.3120e+00;-8.7054e+01;4.4058e+01;1.7057e+00;1.1103e+02;"line";1.0056e+03;0;"p";0;1.0056e+03;9.5165e+02;1.0627e+03;1.0117e+03;1.2541e-02
1998-12-07T00:15:57.090;9.7585e+01;2.1544e+02;2.3271e+01;1.1530e-01;2.2196e+01;9.3040e+00;-8.7055e+01;4.4058e+01;1.7058e+00;1.1355e+02;"line";1.0056e+03;0;"p";0;1.0056e+03;9.5046e+02;1.0640e+03;1.0120e+03;1.2541e-02
1998-12-07T00:16:15.757;9.7586e+01;2.1562e+02;2.3271e+01;1.1530e-01;2.2196e+01;9.2963e+00;-8.7056e+01;4.4058e+01;1.7058e+00;1.1620e+02;"line";9.6015e+02;0;"p";0;9.6015e+02;9.0380e+02;1.0200e+03;9.6715e+02;1.1432e-02
1998-12-07T00:16:34.423;9.7587e+01;2.1581e+02;2.3271e+01;1.1530e-01;2.2196e+01;9.2881e+00;-8.7057e+01;4.4057e+01;1.7058e+00;1.1145e+02;"line";9.6015e+02;0;"p";0;9.6015e+02;9.0604e+02;1.0175e+03;9.6659e+02;1.1432e-02
1998-12-07T00:16:53.090;9.7587e+01;2.1600e+02;2.3271e+01;1.1529e-01;2.2196e+01;9.2797e+00;-8.7057e+01;4.4057e+01;1.7059e+00;1.1134e+02;"line";9.8263e+02;0;"p";0;9.8263e+02;9.2853e+02;1.0399e+03;9.8892e+02;1.1974e-02
1998-12-07T00:17:11.757;9.7588e+01;2.1619e+02;2.3272e+01;1.1529e-01;2.2196e+01;9.2717e+00;-8.7058e+01;4.4057e+01;1.7059e+00;1.1191e+02;"line";9.8263e+02;0;"p";0;9.8263e+02;9.2827e+02;1.0402e+03;9.8898e+02;1.1974e-02
1998-12-07T00:17:30.423;9.7589e+01;2.1638e+02;2.3272e+01;1.1529e-01;2.2196e+01;9.2632e+00;-8.7059e+01;4.4057e+01;1.7059e+00;1.1103e+02;"line";9.8263e+02;0;"p";0;9.8263e+02;9.2868e+02;1.0397e+03;9.8888e+02;1.1974e-02
1998-12-07T00:17:49.090;9.7590e+01;2.1657e+02;2.3272e+01;1.1529e-01;2.2196e+01;9.2546e+00;-8.7060e+01;4.4057e+01;1.7060e+00;1.0809e+02;"line";1.0056e+03;0;"p";0;1.0056e+03;9.5304e+02;1.0611e+03;1.0114e+03;1.2541e-02
1998-12-07T00:18:07.757;9.7590e+01;2.1675e+02;2.3272e+01;1.1529e-01;2.2196e+01;9.2463e+00;-8.7061e+01;4.4057e+01;1.7060e+00;1.0909e+02;"line";1.0056e+03;0;"p";0;1.0056e+03;9.5257e+02;1.0617e+03;1.0115e+03;1.2541e-02
1998-12-07T00:18:26.423;9.7591e+01;2.1694e+02;2.3272e+01;1.1528e-01;2.2196e+01;9.2375e+00;-8.7062e+01;4.4057e+01;1.7060e+00;1.1058e+02;"line";1.0533e+03;0;"p";0;1.0533e+03;9.9945e+02;1.1100e+03;1.0591e+03;1.3757e-02
1998-12-07T00:18:45.090;9.7592e+01;2.1713e+02;2.3272e+01;1.1528e-01;2.2196e+01;9.2285e+00;-8.7062e+01;4.4057e+01;1.7061e+00;1.1141e+02;"line";1.0056e+03;0;"p";0;1.0056e+03;9.5147e+02;1.0629e+03;1.0118e+03;1.2541e-02
1998-12-07T00:19:03.757;9.7592e+01;2.1731e+02;2.3273e+01;1.1528e-01;2.2196e+01;9.2200e+00;-8.7063e+01;4.4057e+01;1.7061e+00;1.1098e+02;"line";1.0533e+03;0;"p";0;1.0533e+03;9.9925e+02;1.1102e+03;1.0591e+03;1.3757e-02
1998-12-07T00:19:22.423;9.7593e+01;2.1750e+02;2.3273e+01;1.1528e-01;2.2195e+01;9.2108e+00;-8.7064e+01;4.4057e+01;1.7061e+00;1.1307e+02;"line";1.0056e+03;0;"p";0;1.0056e+03;9.5069e+02;1.0638e+03;1.0120e+03;1.2541e-02
1998-12-07T00:19:41.090;9.7594e+01;2.1769e+02;2.3273e+01;1.1527e-01;2.2195e+01;9.2016e+00;-8.7065e+01;4.4057e+01;1.7062e+00;1.1169e+02;"line";1.0292e+03;0;"p";0;1.0292e+03;9.7486e+02;1.0865e+03;1.0352e+03;1.3135e-02
1998-12-07T00:19:59.756;9.7595e+01;2.1788e+02;2.3273e+01;1.1527e-01;2.2195e+01;9.1927e+00;-8.7066e+01;4.4057e+01;1.7062e+00;1.1009e+02;"line";1.0533e+03;0;"p";0;1.0533e+03;9.9968e+02;1.1098e+03;1.0590e+03;1.3757e-02
1998-12-07T00:20:18.423;9.7595e+01;2.1807e+02;2.3273e+01;1.1527e-01;2.2195e+01;9.1833e+00;-8.7067e+01;4.4057e+01;1.7062e+00;1.0917e+02;"line";1.0056e+03;0;"p";0;1.0056e+03;9.5253e+02;1.0617e+03;1.0115e+03;1.2541e-02
1998-12-07T00:20:37.090;9.7596e+01;2.1826e+02;2.3273e+01;1.1527e-01;2.2195e+01;9.1738e+00;-8.7067e+01;4.4057e+01;1.7063e+00;1.0631e+02;"line";1.0056e+03;0;"p";0;1.0056e+03;9.5388e+02;1.0602e+03;1.0112e+03;1.2541e-02
1998-12-07T00:20:55.756;9.7597e+01;2.1844e+02;2.3274e+01;1.1526e-01;2.2195e+01;9.1646e+00;-8.7068e+01;4.4057e+01;1.7063e+00;1.0653e+02;"line";1.0292e+03;0;"p";0;1.0292e+03;9.7729e+02;1.0838e+03;1.0347e+03;1.3135e-02
1998-12-07T00:21:14.423;9.7597e+01;2.1863e+02;2.3274e+01;1.1526e-01;2.2195e+01;9.1549e+00;-8.7069e+01;4.4057e+01;1.7063e+00;1.0543e+02;"line";1.0533e+03;0;"p";0;1.0533e+03;1.0019e+03;1.1073e+03;1.0585e+03;1.3757e-02
1998-12-07T00:21:33.090;9.7598e+01;2.1882e+02;2.3274e+01;1.1526e-01;2.2195e+01;9.1450e+00;-8.7070e+01;4.4057e+01;1.7064e+00;1.0389e+02;"line";1.0533e+03;0;"p";0;1.0533e+03;1.0026e+03;1.1065e+03;1.0584e+03;1.3757e-02
1998-12-07T00:21:51.756;9.7599e+01;2.1900e+02;2.3274e+01;1.1526e-01;2.2195e+01;9.1356e+00;-8.7071e+01;4.4056e+01;1.7064e+00;1.0390e+02;"line";1.0533e+03;0;"p";0;1.0533e+03;1.0026e+03;1.1065e+03;1.0584e+03;1.3757e-02
1998-12-07T00:22:10.423;9.7600e+01;2.1919e+02;2.3274e+01;1.1525e-01;2.2195e+01;9.1256e+00;-8.7071e+01;4.4056e+01;1.7064e+00;1.0772e+02;"line";1.0056e+03;0;"p";0;1.0056e+03;9.5322e+02;1.0609e+03;1.0114e+03;1.2541e-02
1998-12-07T00:22:29.090;9.7600e+01;2.1938e+02;2.3274e+01;1.1525e-01;2.2195e+01;9.1155e+00;-8.7072e+01;4.4056e+01;1.7065e+00;1.0235e+02;"line";1.0533e+03;0;"p";0;1.0533e+03;1.0034e+03;1.1057e+03;1.0582e+03;1.3757e-02
1998-12-07T00:22:47.756;9.7601e+01;2.1957e+02;2.3275e+01;1.1525e-01;2.2195e+01;9.1058e+00;-8.7073e+01;4.4056e+01;1.7065e+00;9.7357e+01;"line";1.0056e+03;0;"p";0;1.0056e+03;9.5814e+02;1.0555e+03;1.0103e+03;1.2541e-02
1998-12-07T00:23:06.423;9.7602e+01;2.1976e+02;2.3275e+01;1.1525e-01;2.2195e+01;9.0954e+00;-8.7074e+01;4.4056e+01;1.7065e+00;9.6983e+01;"line";1.0533e+03;0;"p";0;1.0533e+03;1.0059e+03;1.1029e+03;1.0577e+03;1.3757e-02
1998-12-07T00:23:25.090;9.7602e+01;2.1995e+02;2.3275e+01;1.1524e-01;2.2195e+01;9.0850e+00;-8.7075e+01;4.4056e+01;1.7066e+00;9.9596e+01;"line";1.0056e+03;0;"p";0;1.0056e+03;9.5707e+02;1.0567e+03;1.0106e+03;1.2541e-02
1998-12-07T00:23:43.756;9.7603e+01;2.2013e+02;2.3275e+01;1.1524e-01;2.2195e+01;9.0750e+00;-8.7076e+01;4.4056e+01;1.7066e+00;1.0058e+02;"line";1.0533e+03;0;"p";0;1.0533e+03;1.0042e+03;1.1048e+03;1.0581e+03;1.3757e-02
1998-12-07T00:24:02.423;9.7604e+01;2.2032e+02;2.3275e+01;1.1524e-01;2.2195e+01;9.0644e+00;-8.7076e+01;4.4056e+01;1.7066e+00;9.8213e+01;"line";1.0056e+03;0;"p";0;1.0056e+03;9.5773e+02;1.0559e+03;1.0104e+03;1.2541e-02
1998-12-07T00:24:21.090;9.7605e+01;2.2051e+02;2.3275e+01;1.1524e-01;2.2195e+01;9.0537e+00;-8.7077e+01;4.4056e+01;1.7066e+00;9.5326e+01;"line";1.0533e+03;0;"p";0;1.0533e+03;1.0067e+03;1.1020e+03;1.0576e+03;1.3757e-02
1998-12-07T00:24:39.756;9.7605e+01;2.2069e+02;2.3276e+01;1.1523e-01;2.2195e+01;9.0434e+00;-8.7078e+01;4.4056e+01;1.7067e+00;9.5666e+01;"line";1.0056e+03;0;"p";0;1.0056e+03;9.5894e+02;1.0546e+03;1.0102e+03;1.2541e-02
1998-12-07T00:24:58.423;9.7606e+01;2.2088e+02;2.3276e+01;1.1523e-01;2.2195e+01;9.0325e+00;-8.7079e+01;4.4056e+01;1.7067e+00;9.6951e+01;"line";1.0533e+03;0;"p";0;1.0533e+03;1.0059e+03;1.1029e+03;1.0577e+03;1.3757e-02
1998-12-07T00:25:17.090;9.7607e+01;2.2108e+02;2.3276e+01;1.1523e-01;2.2195e+01;9.0215e+00;-8.7080e+01;4.4056e+01;1.7067e+00;9.6798e+01;"line";1.0056e+03;0;"p";0;1.0056e+03;9.5840e+02;1.0552e+03;1.0103e+03;1.2541e-02
1998-12-07T00:25:35.756;9.7607e+01;2.2126e+02;2.3276e+01;1.1523e-01;2.2195e+01;9.0109e+00;-8.7081e+01;4.4056e+01;1.7068e+00;9.6470e+01;"line";9.3818e+02;0;"p";0;9.3818e+02;8.9118e+02;9.8765e+02;9.4313e+02;1.0915e-02
1998-12-07T00:25:54.423;9.7608e+01;2.2145e+02;2.3276e+01;1.1522e-01;2.2195e+01;8.9997e+00;-8.7081e+01;4.4056e+01;1.7068e+00;9.6150e+01;"line";1.0056e+03;0;"p";0;1.0056e+03;9.5871e+02;1.0549e+03;1.0102e+03;1.2541e-02
1998-12-07T00:26:13.090;9.7609e+01;2.2164e+02;2.3277e+01;1.1522e-01;2.2195e+01;8.9884e+00;-8.7082e+01;4.4056e+01;1.7068e+00;9.4255e+01;"line";9.3818e+02;0;"p";0;9.3818e+02;8.9224e+02;9.8649e+02;9.4290e+02;1.0915e-02
1998-12-07T00:26:31.756;9.7610e+01;2.2182e+02;2.3277e+01;1.1522e-01;2.2195e+01;8.9776e+00;-8.7083e+01;4.4056e+01;1.7069e+00;9.2399e+01;"line";9.8263e+02;0;"p";0;9.8263e+02;9.3751e+02;1.0299e+03;9.8696e+02;1.1974e-02
1998-12-07T00:26:50.423;9.7610e+01;2.2201e+02;2.3277e+01;1.1522e-01;2.2195e+01;8.9661e+00;-8.7084e+01;4.4055e+01;1.7069e+00;9.3431e+01;"line";9.8263e+02;0;"p";0;9.8263e+02;9.3702e+02;1.0305e+03;9.8706e+02;1.1974e-02
1998-12-07T00:27:09.090;9.7611e+01;2.2220e+02;2.3277e+01;1.1522e-01;2.2195e+01;8.9545e+00;-8.7085e+01;4.4055e+01;1.7069e+00;9.5172e+01;"line";1.0533e+03;0;"p";0;1.0533e+03;1.0068e+03;1.1019e+03;1.0576e+03;1.3757e-02
1998-12-07T00:27:27.756;9.7612e+01;2.2238e+02;2.3277e+01;1.1521e-01;2.2195e+01;8.9434e+00;-8.7086e+01;4.4055e+01;1.7070e+00;9.4436e+01;"line";1.0056e+03;0;"p";0;1.0056e+03;9.5953e+02;1.0540e+03;1.0101e+03;1.2541e-02
1998-12-07T00:27:46.423;9.7612e+01;2.2257e+02;2.3277e+01;1.1521e-01;2.2195e+01;8.9316e+00;-8.7086e+01;4.4055e+01;1.7070e+00;9.2628e+01;"line";1.0056e+03;0;"p";0;1.0056e+03;9.6039e+02;1.0530e+03;1.0099e+03;1.2541e-02
1998-12-07T00:28:05.090;9.7613e+01;2.2277e+02;2.3278e+01;1.1521e-01;2.2195e+01;8.9197e+00;-8.7087e+01;4.4055e+01;1.7070e+00;9.1882e+01;"line";9.6015e+02;0;"p";0;9.6015e+02;9.1530e+02;1.0072e+03;9.6453e+02;1.1432e-02
1998-12-07T00:28:23.756;9.7614e+01;2.2295e+02;2.3278e+01;1.1521e-01;2.2195e+01;8.9083e+00;-8.7088e+01;4.4055e+01;1.7071e+00;9.2299e+01;"line";9.8263e+02;0;"p";0;9.8263e+02;9.3756e+02;1.0299e+03;9.8695e+02;1.1974e-02
1998-12-07T00:28:42.423;9.7615e+01;2.2314e+02;2.3278e+01;1.1520e-01;2.2195e+01;8.8962e+00;-8.7089e+01;4.4055e+01;1.7071e+00;9.3688e+01;"line";9.8263e+02;0;"p";0;9.8263e+02;9.3690e+02;1.0306e+03;9.8709e+02;1.1974e-02
1998-12-07T00:29:01.090;9.7615e+01;2.2333e+02;2.3278e+01;1.1520e-01;2.2195e+01;8.8840e+00;-8.7090e+01;4.4055e+01;1.7071e+00;9.5256e+01;"line";1.0056e+03;0;"p";0;1.0056e+03;9.5914e+02;1.0544e+03;1.0101e+03;1.2541e-02
1998-12-07T00:29:19.756;9.7616e+01;2.2351e+02;2.3278e+01;1.1520e-01;2.2194e+01;8.8724e+00;-8.7091e+01;4.4055e+01;1.7072e+00;9.5405e+01;"line";1.0533e+03;0;"p";0;1.0533e+03;1.0067e+03;1.1021e+03;1.0576e+03;1.3757e-02
1998-12-07T00:29:38.423;9.7617e+01;2.2370e+02;2.3278e+01;1.1520e-01;2.2194e+01;8.8600e+00;-8.7091e+01;4.4055e+01;1.7072e+00;9.5766e+01;"line";1.0056e+03;0;"p";0;1.0056e+03;9.5889e+02;1.0547e+03;1.0102e+03;1.2541e-02
1998-12-07T00:29:57.089;9.7617e+01;2.2389e+02;2.3279e+01;1.1519e-01;2.2194e+01;8.8475e+00;-8.7092e+01;4.4055e+01;1.7072e+00;9.5417e+01;"line";1.0533e+03;0;"p";0;1.0533e+03;1.0067e+03;1.1021e+03;1.0576e+03;1.3757e-02
1998-12-07T00:30:15.756;9.7618e+01;2.2407e+02;2.3279e+01;1.1519e-01;2.2194e+01;8.8356e+00;-8.7093e+01;4.4055e+01;1.7073e+00;9.3109e+01;"line";1.0056e+03;0;"p";0;1.0056e+03;9.6016e+02;1.0533e+03;1.0099e+03;1.2541e-02
1998-12-07T00:30:34.423;9.7619e+01;2.2426e+02;2.3279e+01;1.1519e-01;2.2194e+01;8.8230e+00;-8.7094e+01;4.4055e+01;1.7073e+00;9.2587e+01;"line";1.0056e+03;0;"p";0;1.0056e+03;9.6041e+02;1.0530e+03;1.0099e+03;1.2541e-02
1998-12-07T00:30:53.089;9.7620e+01;2.2446e+02;2.3279e+01;1.1519e-01;2.2194e+01;8.8102e+00;-8.7095e+01;4.4055e+01;1.7073e+00;9.4563e+01;"line";1.0056e+03;0;"p";0;1.0056e+03;9.5947e+02;1.0540e+03;1.0101e+03;1.2541e-02
1998-12-07T00:31:11.756;9.7620e+01;2.2464e+02;2.3279e+01;1.1518e-01;2.2194e+01;8.7980e+00;-8.7096e+01;4.4055e+01;1.7074e+00;9.6523e+01;"line";1.0056e+03;0;"p";0;1.0056e+03;9.5853e+02;1.0551e+03;1.0103e+03;1.2541e-02
1998-12-07T00:31:30.423;9.7621e+01;2.2483e+02;2.3279e+01;1.1518e-01;2.2194e+01;8.7851e+00;-8.7096e+01;4.4055e+01;1.7074e+00;9.6690e+01;"line";1.0056e+03;0;"p";0;1.0056e+03;9.5845e+02;1.0551e+03;1.0103e+03;1.2541e-02
1998-12-07T00:31:49.089;9.7622e+01;2.2502e+02;2.3280e+01;1.1518e-01;2.2194e+01;8.7720e+00;-8.7097e+01;4.4055e+01;1.7074e+00;9.3119e+01;"line";9.8263e+02;0;"p";0;9.8263e+02;9.3717e+02;1.0303e+03;9.8703e+02;1.1974e-02
1998-12-07T00:32:07.756;9.7622e+01;2.2520e+02;2.3280e+01;1.1518e-01;2.2194e+01;8.7596e+00;-8.7098e+01;4.4054e+01;1.7075e+00;9.2658e+01;"line";1.0533e+03;0;"p";0;1.0533e+03;1.0080e+03;1.1006e+03;1.0573e+03;1.3757e-02
1998-12-07T00:32:26.423;9.7623e+01;2.2539e+02;2.3280e+01;1.1517e-01;2.2194e+01;8.7463e+00;-8.7099e+01;4.4054e+01;1.7075e+00;9.2545e+01;"line";1.0056e+03;0;"p";0;1.0056e+03;9.6043e+02;1.0530e+03;1.0099e+03;1.2541e-02
1998-12-07T00:32:45.089;9.7624e+01;2.2558e+02;2.3280e+01;1.1517e-01;2.2194e+01;8.7330e+00;-8.7100e+01;4.4054e+01;1.7075e+00;9.2386e+01;"line";1.0292e+03;0;"p";0;1.0292e+03;9.8403e+02;1.0764e+03;1.0333e+03;1.3135e-02
1998-12-07T00:33:03.756;9.7625e+01;2.2576e+02;2.3280e+01;1.1517e-01;2.2194e+01;8.7203e+00;-8.7101e+01;4.4054e+01;1.7076e+00;9.2186e+01;"line";1.0292e+03;0;"p";0;1.0292e+03;9.8412e+02;1.0763e+03;1.0333e+03;1.3135e-02
1998-12-07T00:33:22.423;9.7625e+01;2.2595e+02;2.3280e+01;1.1517e-01;2.2194e+01;8.7067e+00;-8.7101e+01;4.4054e+01;1.7076e+00;9.2469e+01;"line";1.0292e+03;0;"p";0;1.0292e+03;9.8399e+02;1.0765e+03;1.0333e+03;1.3135e-02